{"data":{"norad_id":67252,"intl_designator":"2025-313E","name":"ZORKIY-2M-VPE","alt_names":[],"object_type":"PAYLOAD","status":"ACTIVE","operator":null,"country":"CIS","launch_date":"2025-12-28","launch_site_code":"VOSTO","launch_vehicle":null,"mission":null,"orbit_class":"UNKNOWN","rcs_meters":null,"size_class":null,"mass_kg":null,"dimensions":null,"purposes":[],"wikipedia_slug":null,"has_3d_model":false,"image_url":null,"decayed_at":null,"tle_current":{"epoch":"2026-09-20T11:12:13.150368Z","epoch_age_seconds":105962,"freshness":"FRESH","line1":"1 67252U 25313E   26263.46681887  .00004333  00000+0  17436-3 0  9999","line2":"2 67252  97.3864 337.2258 0009977  18.2803 341.8792 15.25377112 40490","mean_motion":15.25377112,"eccentricity":0.0009977,"inclination_deg":97.3864,"raan_deg":337.2258,"arg_perigee_deg":18.2803,"mean_anomaly_deg":341.8792,"bstar":0.00017436,"rev_number":4049,"period_min":94.402884943773,"perigee_km":482.80127792037,"apogee_km":496.50526662967,"semimajor_km":6867.790272275,"source":"CELESTRAK","updated_at":"2026-09-21T09:00:16.511843Z"}}}